Time,TemperatureF,DewpointF,PressureIn,WindDirection,WindDirectionDegrees,WindSpeedMPH,WindSpeedGustMPH,Humidity,HourlyPrecipIn,Conditions,Clouds,dailyrainin,SoftwareType,DateUTC
2013-09-10 00:00:00,59.3,54.8,30.07,SSE,161,5.0,5.0,85,0.00,,,0.00,Wunderground v.1.15,2013-09-10 04:00:00,
2013-09-10 00:05:00,59.4,54.9,30.07,SSW,197,5.0,5.0,85,0.00,,,0.00,Wunderground v.1.15,2013-09-10 04:05:00,
2013-09-10 00:10:00,59.5,55.3,30.07,South,178,5.0,5.0,86,0.00,,,0.00,Wunderground v.1.15,2013-09-10 04:10:00,
2013-09-10 00:15:00,59.5,55.3,30.08,SE,138,5.0,5.0,86,0.00,,,0.00,Wunderground v.1.15,2013-09-10 04:15:00,
2013-09-10 00:20:00,59.5,55.3,30.08,SSE,149,5.0,5.0,86,0.00,,,0.00,Wunderground v.1.15,2013-09-10 04:20:00,
2013-09-10 00:25:00,59.5,55.3,30.08,South,169,5.0,5.0,86,0.00,,,0.00,Wunderground v.1.15,2013-09-10 04:25:00,
2013-09-10 00:30:00,59.6,55.4,30.08,SE,139,5.0,6.0,86,0.00,,,0.00,Wunderground v.1.15,2013-09-10 04:30:00,
2013-09-10 00:35:00,59.7,55.8,30.08,SSE,166,4.0,8.0,87,0.00,,,0.00,Wunderground v.1.15,2013-09-10 04:35:00,
2013-09-10 00:40:00,59.9,56.0,30.08,SSW,199,5.0,5.0,87,0.00,,,0.00,Wunderground v.1.15,2013-09-10 04:40:00,
2013-09-10 00:50:00,60.2,56.0,30.07,South,191,5.0,9.0,86,0.00,,,0.00,Wunderground v.1.15,2013-09-10 04:50:00,
2013-09-10 01:00:00,60.3,56.1,30.07,SSE,163,5.0,10.0,86,0.00,,,0.00,Wunderground v.1.15,2013-09-10 05:00:00,
2013-09-10 01:10:00,60.6,56.4,30.07,SE,137,5.0,5.0,86,0.00,,,0.00,Wunderground v.1.15,2013-09-10 05:10:00,
2013-09-10 01:20:00,60.7,56.5,30.07,SSE,153,5.0,5.0,86,0.00,,,0.00,Wunderground v.1.15,2013-09-10 05:20:00,
2013-09-10 01:30:00,60.7,56.5,30.07,SSE,161,5.0,6.0,86,0.00,,,0.00,Wunderground v.1.15,2013-09-10 05:30:00,
2013-09-10 01:40:00,60.7,56.5,30.07,SE,134,4.0,4.0,86,0.00,,,0.00,Wunderground v.1.15,2013-09-10 05:40:00,
2013-09-10 01:50:00,60.8,56.9,30.07,SSE,166,4.0,4.0,87,0.00,,,0.00,Wunderground v.1.15,2013-09-10 05:50:00,
2013-09-10 02:00:00,61.1,57.2,30.06,South,170,4.0,4.0,87,0.00,,,0.00,Wunderground v.1.15,2013-09-10 06:00:00,
2013-09-10 02:10:00,61.4,57.2,30.06,ESE,123,4.0,4.0,86,0.00,,,0.00,Wunderground v.1.15,2013-09-10 06:10:00,
2013-09-10 02:20:00,61.6,57.4,30.06,SE,141,3.0,3.0,86,0.00,,,0.00,Wunderground v.1.15,2013-09-10 06:20:00,
2013-09-10 02:30:00,61.7,57.5,30.06,SSE,154,2.0,2.0,86,0.00,,,0.00,Wunderground v.1.15,2013-09-10 06:30:00,
2013-09-10 02:40:00,61.9,57.7,30.06,SSE,155,3.0,3.0,86,0.00,,,0.00,Wunderground v.1.15,2013-09-10 06:40:00,
2013-09-10 02:50:00,62.2,58.3,30.06,SSE,160,3.0,4.0,87,0.00,,,0.00,Wunderground v.1.15,2013-09-10 06:50:00,
2013-09-10 03:00:00,62.6,58.7,30.06,SSE,157,3.0,3.0,87,0.00,,,0.00,Wunderground v.1.15,2013-09-10 07:00:00,
2013-09-10 03:10:00,62.9,58.6,30.06,South,188,4.0,5.0,86,0.00,,,0.00,Wunderground v.1.15,2013-09-10 07:10:00,
2013-09-10 03:20:00,63.3,59.0,30.06,SSE,159,4.0,5.0,86,0.00,,,0.00,Wunderground v.1.15,2013-09-10 07:20:00,
2013-09-10 03:30:00,63.7,59.1,30.05,SE,127,4.0,4.0,85,0.00,,,0.00,Wunderground v.1.15,2013-09-10 07:30:00,
2013-09-10 03:40:00,64.0,59.4,30.05,SE,136,5.0,5.0,85,0.00,,,0.00,Wunderground v.1.15,2013-09-10 07:40:00,
2013-09-10 03:50:00,64.2,59.3,30.05,SE,134,6.0,6.0,84,0.00,,,0.00,Wunderground v.1.15,2013-09-10 07:50:00,
2013-09-10 04:00:00,64.4,59.5,30.05,SE,143,6.0,6.0,84,0.00,,,0.00,Wunderground v.1.15,2013-09-10 08:00:00,
2013-09-10 04:10:00,64.5,59.6,30.05,SSE,162,8.0,11.0,84,0.00,,,0.00,Wunderground v.1.15,2013-09-10 08:10:00,
2013-09-10 04:20:00,64.7,59.4,30.05,South,170,8.0,8.0,83,0.00,,,0.00,Wunderground v.1.15,2013-09-10 08:20:00,
2013-09-10 04:30:00,64.8,59.5,30.04,SE,133,8.0,8.0,83,0.00,,,0.00,Wunderground v.1.15,2013-09-10 08:30:00,
2013-09-10 04:40:00,64.9,59.6,30.04,South,171,7.0,9.0,83,0.00,,,0.00,Wunderground v.1.15,2013-09-10 08:40:00,
2013-09-10 04:50:00,65.0,59.7,30.03,SE,146,7.0,9.0,83,0.00,,,0.00,Wunderground v.1.15,2013-09-10 08:50:00,
2013-09-10 05:00:00,65.1,59.5,30.04,South,181,8.0,8.0,82,0.00,,,0.00,Wunderground v.1.15,2013-09-10 09:00:00,
2013-09-10 05:10:00,65.3,59.7,30.04,SSW,205,8.0,8.0,82,0.00,,,0.00,Wunderground v.1.15,2013-09-10 09:10:00,
2013-09-10 05:20:00,65.5,59.9,30.03,SSE,165,8.0,9.0,82,0.00,,,0.00,Wunderground v.1.15,2013-09-10 09:20:00,
2013-09-10 05:30:00,65.6,60.0,30.03,SSE,158,8.0,8.0,82,0.00,,,0.00,Wunderground v.1.15,2013-09-10 09:30:00,
2013-09-10 05:40:00,65.7,60.1,30.03,SSE,158,8.0,11.0,82,0.00,,,0.00,Wunderground v.1.15,2013-09-10 09:40:00,
2013-09-10 05:50:00,65.8,60.2,30.05,SSE,164,8.0,8.0,82,0.00,,,0.00,Wunderground v.1.15,2013-09-10 09:50:00,
2013-09-10 06:00:00,65.9,60.2,30.05,SE,138,9.0,11.0,82,0.00,,,0.00,Wunderground v.1.15,2013-09-10 10:00:00,
2013-09-10 06:10:00,66.0,60.7,30.05,SSW,193,9.0,14.0,83,0.00,,,0.00,Wunderground v.1.15,2013-09-10 10:10:00,
2013-09-10 06:20:00,66.1,60.8,30.05,South,185,9.0,9.0,83,0.00,,,0.00,Wunderground v.1.15,2013-09-10 10:20:00,
2013-09-10 06:30:00,66.1,61.5,30.05,SSW,198,7.0,7.0,85,0.00,,,0.00,Wunderground v.1.15,2013-09-10 10:30:00,
2013-09-10 06:40:00,65.6,61.6,30.05,South,190,7.0,7.0,87,0.27,,,0.02,Wunderground v.1.15,2013-09-10 10:40:00,
2013-09-10 06:50:00,65.1,61.5,30.06,SSW,199,7.0,7.0,88,0.06,,,0.03,Wunderground v.1.15,2013-09-10 10:50:00,
2013-09-10 07:00:00,64.7,61.7,30.07,SSE,158,6.0,6.0,90,0.22,,,0.08,Wunderground v.1.15,2013-09-10 11:00:00,
2013-09-10 07:10:00,64.4,61.7,30.07,SSE,167,8.0,10.0,91,0.08,,,0.09,Wunderground v.1.15,2013-09-10 11:10:00,
2013-09-10 07:20:00,64.3,61.9,30.06,SE,128,8.0,8.0,92,0.00,,,0.09,Wunderground v.1.15,2013-09-10 11:20:00,
2013-09-10 07:30:00,64.3,62.2,30.05,SE,144,8.0,8.0,93,0.00,,,0.09,Wunderground v.1.15,2013-09-10 11:30:00,
2013-09-10 07:40:00,64.4,62.3,30.05,SE,129,9.0,9.0,93,0.00,,,0.09,Wunderground v.1.15,2013-09-10 11:40:00,
2013-09-10 07:50:00,64.6,62.5,30.05,South,175,8.0,8.0,93,0.00,,,0.09,Wunderground v.1.15,2013-09-10 11:50:00,
2013-09-10 08:00:00,64.8,63.0,30.05,SSE,167,8.0,8.0,94,0.00,,,0.09,Wunderground v.1.15,2013-09-10 12:00:00,
2013-09-10 08:15:00,65.2,63.4,30.05,South,187,8.0,8.0,94,0.00,,,0.09,Wunderground v.1.15,2013-09-10 12:15:00,
2013-09-10 08:20:00,65.4,63.6,30.05,SE,136,7.0,7.0,94,0.00,,,0.09,Wunderground v.1.15,2013-09-10 12:20:00,
2013-09-10 08:30:00,65.9,64.1,30.05,South,185,6.0,10.0,94,0.00,,,0.09,Wunderground v.1.15,2013-09-10 12:30:00,
2013-09-10 08:40:00,66.3,64.5,30.05,SSE,160,7.0,9.0,94,0.00,,,0.09,Wunderground v.1.15,2013-09-10 12:40:00,
2013-09-10 08:50:00,66.7,64.9,30.05,SE,144,7.0,7.0,94,0.00,,,0.09,Wunderground v.1.15,2013-09-10 12:50:00,
2013-09-10 09:00:00,66.8,64.7,30.06,SE,145,6.0,6.0,93,0.00,,,0.09,Wunderground v.1.15,2013-09-10 13:00:00,
2013-09-10 09:10:00,66.9,64.5,30.06,SE,143,7.0,10.0,92,0.00,,,0.09,Wunderground v.1.15,2013-09-10 13:10:00,
2013-09-10 09:20:00,67.1,64.7,30.07,ESE,112,7.0,7.0,92,0.00,,,0.09,Wunderground v.1.15,2013-09-10 13:20:00,
2013-09-10 09:30:00,67.4,65.0,30.07,North,356,8.0,8.0,92,0.00,,,0.09,Wunderground v.1.15,2013-09-10 13:30:00,
2013-09-10 09:40:00,67.6,64.9,30.07,SSE,156,7.0,10.0,91,0.00,,,0.09,Wunderground v.1.15,2013-09-10 13:40:00,
2013-09-10 09:50:00,67.8,65.1,30.07,South,170,7.0,10.0,91,0.00,,,0.09,Wunderground v.1.15,2013-09-10 13:50:00,
2013-09-10 10:00:00,68.0,65.3,30.08,SSE,162,7.0,7.0,91,0.00,,,0.09,Wunderground v.1.15,2013-09-10 14:00:00,
2013-09-10 10:10:00,68.2,65.5,30.08,SSW,201,6.0,9.0,91,0.00,,,0.09,Wunderground v.1.15,2013-09-10 14:10:00,
2013-09-10 10:20:00,68.5,65.8,30.08,SSE,158,6.0,6.0,91,0.00,,,0.09,Wunderground v.1.15,2013-09-10 14:20:00,
2013-09-10 10:30:00,68.7,65.6,30.07,SSE,168,7.0,7.0,90,0.00,,,0.09,Wunderground v.1.15,2013-09-10 14:30:00,
2013-09-10 10:40:00,69.2,66.1,30.07,SSE,157,7.0,7.0,90,0.00,,,0.09,Wunderground v.1.15,2013-09-10 14:40:00,
2013-09-10 10:50:00,69.6,66.5,30.07,South,169,6.0,6.0,90,0.00,,,0.09,Wunderground v.1.15,2013-09-10 14:50:00,
2013-09-10 11:00:00,70.2,66.8,30.07,SSW,193,6.0,14.0,89,0.00,,,0.09,Wunderground v.1.15,2013-09-10 15:00:00,
2013-09-10 11:10:00,70.3,66.6,30.07,SSW,205,8.0,8.0,88,0.00,,,0.09,Wunderground v.1.15,2013-09-10 15:10:00,
2013-09-10 11:20:00,70.3,66.9,30.08,SSE,153,7.0,7.0,89,0.00,,,0.09,Wunderground v.1.15,2013-09-10 15:20:00,
2013-09-10 11:30:00,70.5,67.1,30.08,SSE,160,7.0,7.0,89,0.00,,,0.09,Wunderground v.1.15,2013-09-10 15:30:00,
2013-09-10 11:40:00,70.7,67.3,30.08,SSW,193,7.0,11.0,89,0.00,,,0.09,Wunderground v.1.15,2013-09-10 15:40:00,
2013-09-10 11:50:00,71.1,67.7,30.07,South,189,7.0,9.0,89,0.00,,,0.09,Wunderground v.1.15,2013-09-10 15:50:00,
2013-09-10 12:00:00,71.4,68.0,30.06,SSE,158,6.0,7.0,89,0.00,,,0.09,Wunderground v.1.15,2013-09-10 16:00:00,
2013-09-10 12:10:00,71.7,68.3,30.06,SSE,168,7.0,7.0,89,0.00,,,0.09,Wunderground v.1.15,2013-09-10 16:10:00,
2013-09-10 12:20:00,71.9,68.2,30.07,SW,233,5.0,5.0,88,0.00,,,0.09,Wunderground v.1.15,2013-09-10 16:20:00,
2013-09-10 12:30:00,71.9,68.2,30.08,South,178,5.0,6.0,88,0.00,,,0.09,Wunderground v.1.15,2013-09-10 16:30:00,
2013-09-10 12:40:00,72.3,68.9,30.08,SSW,196,5.0,5.0,89,0.00,,,0.09,Wunderground v.1.15,2013-09-10 16:40:00,
2013-09-10 12:50:00,73.4,70.0,30.05,South,169,6.0,10.0,89,0.00,,,0.09,Wunderground v.1.15,2013-09-10 16:50:00,
2013-09-10 13:00:00,73.6,69.5,30.02,South,170,8.0,8.0,87,0.00,,,0.09,Wunderground v.1.15,2013-09-10 17:00:00,
2013-09-10 13:10:00,73.9,69.4,30.02,South,170,8.0,8.0,86,0.00,,,0.09,Wunderground v.1.15,2013-09-10 17:10:00,
2013-09-10 13:20:00,73.8,69.3,30.00,South,174,10.0,18.0,86,0.00,,,0.09,Wunderground v.1.15,2013-09-10 17:20:00,
2013-09-10 13:30:00,74.7,70.2,29.97,SE,130,9.0,9.0,86,0.00,,,0.09,Wunderground v.1.15,2013-09-10 17:30:00,
2013-09-10 13:40:00,74.8,69.6,29.97,South,191,11.0,11.0,84,0.00,,,0.09,Wunderground v.1.15,2013-09-10 17:40:00,
2013-09-10 13:50:00,74.6,69.4,29.98,SSE,159,12.0,14.0,84,0.00,,,0.09,Wunderground v.1.15,2013-09-10 17:50:00,
2013-09-10 14:00:00,74.4,69.2,29.96,SE,141,11.0,11.0,84,0.00,,,0.09,Wunderground v.1.15,2013-09-10 18:00:00,
2013-09-10 14:10:00,74.3,69.5,29.96,South,189,12.0,13.0,85,0.00,,,0.09,Wunderground v.1.15,2013-09-10 18:10:00,
2013-09-10 14:20:00,74.3,69.5,29.95,South,174,14.0,14.0,85,0.00,,,0.09,Wunderground v.1.15,2013-09-10 18:20:00,
2013-09-10 14:30:00,74.8,69.6,29.98,SE,143,12.0,12.0,84,0.00,,,0.09,Wunderground v.1.15,2013-09-10 18:30:00,
2013-09-10 14:40:00,75.2,69.7,29.98,WSW,240,16.0,16.0,83,0.00,,,0.09,Wunderground v.1.15,2013-09-10 18:40:00,
2013-09-10 14:50:00,75.0,69.5,29.98,South,185,14.0,14.0,83,0.00,,,0.09,Wunderground v.1.15,2013-09-10 18:50:00,
2013-09-10 15:00:00,74.7,69.2,30.00,SSW,195,9.0,14.0,83,0.00,,,0.09,Wunderground v.1.15,2013-09-10 19:00:00,
2013-09-10 15:10:00,74.6,69.4,30.00,SSW,198,12.0,19.0,84,0.00,,,0.09,Wunderground v.1.15,2013-09-10 19:10:00,
2013-09-10 15:20:00,74.6,69.4,29.99,SSW,206,13.0,13.0,84,0.00,,,0.09,Wunderground v.1.15,2013-09-10 19:20:00,
2013-09-10 15:30:00,75.3,69.8,29.99,South,183,16.0,22.0,83,0.00,,,0.09,Wunderground v.1.15,2013-09-10 19:30:00,
2013-09-10 15:40:00,75.0,69.1,29.99,SW,228,16.0,18.0,82,0.00,,,0.09,Wunderground v.1.15,2013-09-10 19:40:00,
2013-09-10 15:50:00,74.5,69.0,29.99,SSW,192,13.0,16.0,83,0.00,,,0.09,Wunderground v.1.15,2013-09-10 19:50:00,
2013-09-10 16:00:00,74.2,69.4,29.99,South,184,11.0,11.0,85,0.00,,,0.09,Wunderground v.1.15,2013-09-10 20:00:00,
2013-09-10 16:10:00,74.1,69.3,29.99,SW,222,11.0,11.0,85,0.00,,,0.09,Wunderground v.1.15,2013-09-10 20:10:00,
2013-09-10 16:20:00,73.9,69.1,29.99,SSW,192,12.0,12.0,85,0.00,,,0.09,Wunderground v.1.15,2013-09-10 20:20:00,
2013-09-10 16:30:00,74.0,69.2,29.99,SSW,199,12.0,12.0,85,0.00,,,0.09,Wunderground v.1.15,2013-09-10 20:30:00,
2013-09-10 16:40:00,74.0,69.2,29.99,SSE,156,9.0,9.0,85,0.00,,,0.09,Wunderground v.1.15,2013-09-10 20:40:00,
2013-09-10 16:50:00,73.8,69.0,29.99,SSE,162,10.0,11.0,85,0.00,,,0.09,Wunderground v.1.15,2013-09-10 20:50:00,
2013-09-10 17:00:00,73.8,69.3,29.99,SSW,212,11.0,11.0,86,0.00,,,0.09,Wunderground v.1.15,2013-09-10 21:00:00,
2013-09-10 17:10:00,74.2,69.7,29.99,SSW,206,10.0,10.0,86,0.00,,,0.09,Wunderground v.1.15,2013-09-10 21:10:00,
2013-09-10 17:20:00,74.6,69.8,29.98,South,174,10.0,11.0,85,0.00,,,0.09,Wunderground v.1.15,2013-09-10 21:20:00,
2013-09-10 17:30:00,74.3,69.5,29.98,SSW,204,8.0,8.0,85,0.00,,,0.09,Wunderground v.1.15,2013-09-10 21:30:00,
2013-09-10 17:40:00,74.1,69.6,29.98,SE,127,7.0,7.0,86,0.00,,,0.09,Wunderground v.1.15,2013-09-10 21:40:00,
2013-09-10 17:50:00,74.0,69.5,29.99,SSE,152,8.0,8.0,86,0.00,,,0.09,Wunderground v.1.15,2013-09-10 21:50:00,
2013-09-10 18:00:00,73.8,69.3,29.98,South,177,8.0,9.0,86,0.00,,,0.09,Wunderground v.1.15,2013-09-10 22:00:00,
2013-09-10 18:10:00,73.8,69.3,29.98,SSW,199,7.0,10.0,86,0.00,,,0.09,Wunderground v.1.15,2013-09-10 22:10:00,
2013-09-10 18:20:00,73.5,69.4,29.98,SSW,206,8.0,11.0,87,0.00,,,0.09,Wunderground v.1.15,2013-09-10 22:20:00,
2013-09-10 18:30:00,73.3,69.2,29.99,South,179,8.0,10.0,87,0.00,,,0.09,Wunderground v.1.15,2013-09-10 22:30:00,
2013-09-10 18:40:00,73.0,69.2,29.99,SSE,166,8.0,8.0,88,0.00,,,0.09,Wunderground v.1.15,2013-09-10 22:40:00,
2013-09-10 18:50:00,72.7,68.9,29.99,SSE,156,8.0,8.0,88,0.00,,,0.09,Wunderground v.1.15,2013-09-10 22:50:00,
2013-09-10 19:00:00,72.3,68.9,29.99,North,349,7.0,7.0,89,0.00,,,0.09,Wunderground v.1.15,2013-09-10 23:00:00,
2013-09-10 19:10:00,72.0,68.9,29.99,SSE,150,8.0,9.0,90,0.00,,,0.09,Wunderground v.1.15,2013-09-10 23:10:00,
2013-09-10 19:20:00,71.7,68.6,29.99,SSE,161,8.0,11.0,90,0.00,,,0.09,Wunderground v.1.15,2013-09-10 23:20:00,
2013-09-10 19:30:00,71.5,68.4,29.99,SSW,193,8.0,11.0,90,0.00,,,0.09,Wunderground v.1.15,2013-09-10 23:30:00,
2013-09-10 19:40:00,71.3,68.5,29.99,South,173,8.0,12.0,91,0.00,,,0.09,Wunderground v.1.15,2013-09-10 23:40:00,
2013-09-10 19:50:00,71.1,68.3,29.99,SSE,159,9.0,9.0,91,0.00,,,0.09,Wunderground v.1.15,2013-09-10 23:50:00,
2013-09-10 20:00:00,71.0,68.6,30.00,SSW,206,8.0,9.0,92,0.00,,,0.09,Wunderground v.1.15,2013-09-11 00:00:00,
2013-09-10 20:10:00,71.3,68.9,30.00,East,83,8.0,8.0,92,0.00,,,0.09,Wunderground v.1.15,2013-09-11 00:10:00,
2013-09-10 20:20:00,71.5,69.1,30.00,SSE,154,8.0,9.0,92,0.00,,,0.09,Wunderground v.1.15,2013-09-11 00:20:00,
2013-09-10 20:30:00,71.6,68.8,30.00,ESE,119,8.0,12.0,91,0.00,,,0.09,Wunderground v.1.15,2013-09-11 00:30:00,
2013-09-10 20:40:00,71.7,68.9,30.00,SW,214,8.0,8.0,91,0.00,,,0.09,Wunderground v.1.15,2013-09-11 00:40:00,
2013-09-10 20:50:00,71.6,68.8,30.00,SSE,160,8.0,9.0,91,0.00,,,0.09,Wunderground v.1.15,2013-09-11 00:50:00,
2013-09-10 21:00:00,71.5,68.7,30.00,South,185,8.0,8.0,91,0.00,,,0.09,Wunderground v.1.15,2013-09-11 01:00:00,
2013-09-10 21:10:00,71.3,68.5,30.00,SSW,200,8.0,13.0,91,0.00,,,0.09,Wunderground v.1.15,2013-09-11 01:10:00,
2013-09-10 21:20:00,71.0,68.6,30.00,SW,222,9.0,9.0,92,0.00,,,0.09,Wunderground v.1.15,2013-09-11 01:20:00,
2013-09-10 21:30:00,70.9,68.5,30.00,SE,139,8.0,8.0,92,0.00,,,0.09,Wunderground v.1.15,2013-09-11 01:30:00,
2013-09-10 21:40:00,70.8,68.7,30.00,SSW,205,9.0,9.0,93,0.00,,,0.09,Wunderground v.1.15,2013-09-11 01:40:00,
2013-09-10 21:50:00,71.0,68.9,30.00,South,172,8.0,10.0,93,0.00,,,0.09,Wunderground v.1.15,2013-09-11 01:50:00,
2013-09-10 22:00:00,71.3,68.9,30.00,South,191,8.0,8.0,92,0.00,,,0.09,Wunderground v.1.15,2013-09-11 02:00:00,
2013-09-10 22:10:00,71.1,68.7,30.00,SSE,164,8.0,8.0,92,0.00,,,0.09,Wunderground v.1.15,2013-09-11 02:10:00,
2013-09-10 22:20:00,71.0,68.6,30.00,East,89,8.0,8.0,92,0.00,,,0.09,Wunderground v.1.15,2013-09-11 02:20:00,
2013-09-10 22:30:00,70.8,68.7,30.00,SSE,152,8.0,9.0,93,0.00,,,0.09,Wunderground v.1.15,2013-09-11 02:30:00,
2013-09-10 22:40:00,70.7,68.6,30.00,SSW,203,7.0,10.0,93,0.00,,,0.09,Wunderground v.1.15,2013-09-11 02:40:00,
2013-09-10 22:50:00,70.8,68.7,30.00,SSW,195,8.0,10.0,93,0.00,,,0.09,Wunderground v.1.15,2013-09-11 02:50:00,
2013-09-10 23:00:00,71.1,69.0,30.00,ESE,118,8.0,8.0,93,0.00,,,0.09,Wunderground v.1.15,2013-09-11 03:00:00,
2013-09-10 23:10:00,71.3,68.9,30.00,South,183,8.0,9.0,92,0.00,,,0.09,Wunderground v.1.15,2013-09-11 03:10:00,
2013-09-10 23:20:00,71.4,69.0,30.00,South,171,8.0,9.0,92,0.00,,,0.09,Wunderground v.1.15,2013-09-11 03:20:00,
2013-09-10 23:30:00,71.5,69.1,30.00,SSE,158,8.0,12.0,92,0.00,,,0.09,Wunderground v.1.15,2013-09-11 03:30:00,
2013-09-10 23:40:00,71.6,69.2,30.00,SSE,164,8.0,12.0,92,0.00,,,0.09,Wunderground v.1.15,2013-09-11 03:40:00,
2013-09-10 23:50:00,71.6,69.2,30.00,SSW,206,8.0,8.0,92,0.00,,,0.09,Wunderground v.1.15,2013-09-11 03:50:00,